Stations météo

réclame
Mon MeteoGroup
Kielder Castle, Grande-Bretagne (99186): Température de l'air & dewpoint: 11.10.2017 10:00:00 - 17.10.2017 10:00:00 (BST)Kielder Castle, Grande-Bretagne (99186): Température de l'air -20cm & Température de l'air -100cm: 11.10.2017 10:00:00 - 17.10.2017 10:00:00 (BST)Kielder Castle, Grande-Bretagne (99186): Quantités de précipitations: 11.10.2017 10:00:00 - 17.10.2017 10:00:00 (BST)
Date & Time tt [°C] td [°C] tt -20cm [°C] tt -100cm [°C] rr [mm]
17.10.2017 10:00:00 9,6 8,3 - - -
17.10.2017 09:00:00 9,8 8,4 - - 0,0
17.10.2017 08:00:00 9,5 8,6 - - 0,2
17.10.2017 07:00:00 9,4 8,6 - - 0,6
17.10.2017 06:00:00 9,5 8,4 - - 0,4
17.10.2017 05:00:00 9,6 8,5 - - 1,4
17.10.2017 04:00:00 9,5 8,6 - - 2,4
17.10.2017 03:00:00 10,2 9,3 - - 1,8
17.10.2017 02:00:00 10,6 9,9 - - 3,0
17.10.2017 01:00:00 11,3 9,7 - - 0,4
17.10.2017 00:00:00 11,3 9,8 - - 0,2
16.10.2017 23:00:00 11,5 9,2 - - 0,0
16.10.2017 22:00:00 12,1 8,5 - - 0,0
16.10.2017 21:00:00 11,9 8,6 - - 0,0
16.10.2017 20:00:00 12,6 8,2 - - 0,0
16.10.2017 19:00:00 13,0 8,0 - - 0,0
16.10.2017 18:00:00 13,6 8,2 - - 0,2
16.10.2017 17:00:00 15,2 11,6 - - 0,0
16.10.2017 16:00:00 13,5 13,1 - - 0,0
16.10.2017 15:00:00 13,2 12,5 - - 0,0
16.10.2017 14:00:00 12,6 12,1 - - 0,0
16.10.2017 13:00:00 12,6 12,0 - - 0,0
16.10.2017 12:00:00 12,1 11,5 - - 0,0
16.10.2017 11:00:00 11,4 11,1 - - 0,8
16.10.2017 10:00:00 11,3 11,1 12,7 12,2 0,2
16.10.2017 09:00:00 11,1 10,9 - - 0,0
16.10.2017 08:00:00 11,3 11,1 - - 0,0
16.10.2017 07:00:00 11,3 11,0 - - 0,0
16.10.2017 06:00:00 12,0 11,7 - - 0,0
16.10.2017 05:00:00 12,2 11,9 - - 0,0
16.10.2017 04:00:00 12,3 12,0 - - 0,0
16.10.2017 03:00:00 12,4 12,0 - - 0,2
16.10.2017 02:00:00 12,5 12,2 - - 0,4
16.10.2017 01:00:00 12,5 12,2 - - 0,4
16.10.2017 00:00:00 12,6 12,3 - - 0,4
15.10.2017 23:00:00 12,7 12,4 - - 0,4
15.10.2017 22:00:00 12,8 12,5 - - 0,6
15.10.2017 21:00:00 12,9 12,6 - - 0,8
15.10.2017 20:00:00 13,2 12,7 - - 0,8
15.10.2017 19:00:00 13,3 12,8 - - 0,4
15.10.2017 18:00:00 13,3 12,7 - - 0,8
15.10.2017 17:00:00 13,3 12,7 - - 0,6
15.10.2017 16:00:00 13,3 12,7 - - 1,0
15.10.2017 15:00:00 13,1 12,4 - - 0,8
15.10.2017 14:00:00 13,8 11,7 - - 0,0
15.10.2017 13:00:00 13,9 11,5 - - 0,0
15.10.2017 12:00:00 13,7 11,4 - - 0,0
15.10.2017 11:00:00 13,5 11,5 - - 0,0
15.10.2017 10:00:00 13,3 11,8 12,7 12,2 0,0
15.10.2017 09:00:00 13,5 11,3 - - 0,0
15.10.2017 08:00:00 13,1 11,1 - - 0,0
15.10.2017 07:00:00 13,2 11,3 - - 0,0
15.10.2017 06:00:00 13,1 11,3 - - 0,0
15.10.2017 05:00:00 12,4 11,3 - - 0,0
15.10.2017 04:00:00 12,1 11,8 - - 0,0
15.10.2017 03:00:00 11,5 11,4 - - 0,0
15.10.2017 02:00:00 10,6 10,4 - - 0,0
15.10.2017 01:00:00 9,9 9,7 - - 0,0
15.10.2017 00:00:00 10,3 9,9 - - 0,0
14.10.2017 23:00:00 11,3 10,8 - - 0,0
14.10.2017 22:00:00 12,6 11,6 - - 0,0
14.10.2017 21:00:00 13,3 12,1 - - 0,0
14.10.2017 20:00:00 13,6 12,4 - - 0,0
14.10.2017 19:00:00 14,1 13,4 - - 0,0
14.10.2017 18:00:00 14,3 13,8 - - 0,0
14.10.2017 17:00:00 14,5 14,2 - - 0,0
14.10.2017 16:00:00 14,3 14,0 - - 0,4
14.10.2017 15:00:00 13,5 13,0 - - 0,8
14.10.2017 14:00:00 13,2 12,7 - - 0,0
14.10.2017 13:00:00 13,2 12,7 - - 0,2
14.10.2017 12:00:00 12,9 11,8 - - 0,0
14.10.2017 11:00:00 12,3 11,6 - - 0,0
14.10.2017 10:00:00 12,0 11,4 12,4 12,2 0,0
14.10.2017 09:00:00 11,7 11,3 - - 0,4
14.10.2017 08:00:00 11,4 11,0 - - 0,2
14.10.2017 07:00:00 11,3 10,6 - - 0,0
14.10.2017 06:00:00 11,6 11,0 - - 0,2
14.10.2017 05:00:00 11,5 10,9 - - 0,2
14.10.2017 04:00:00 12,0 11,5 - - 0,6
14.10.2017 03:00:00 11,9 11,5 - - 0,0
14.10.2017 02:00:00 11,8 11,4 - - 0,0
14.10.2017 01:00:00 11,7 11,2 - - 0,2
14.10.2017 00:00:00 12,0 11,6 - - 0,2
13.10.2017 23:00:00 12,2 11,9 - - 0,4
13.10.2017 22:00:00 11,9 11,6 - - 0,8
13.10.2017 21:00:00 12,1 11,6 - - 1,0
13.10.2017 20:00:00 12,8 12,4 - - 1,0
13.10.2017 19:00:00 12,9 12,3 - - 0,4
13.10.2017 18:00:00 14,6 14,1 - - 1,2
13.10.2017 17:00:00 15,4 14,8 - - 1,0
13.10.2017 16:00:00 15,7 15,0 - - 0,0
13.10.2017 15:00:00 15,6 15,1 - - 0,2
13.10.2017 14:00:00 15,8 15,1 - - 1,0
13.10.2017 13:00:00 15,6 15,0 - - 1,0
13.10.2017 12:00:00 15,6 15,0 - - 0,0
13.10.2017 11:00:00 15,2 14,8 - - 0,2
13.10.2017 10:00:00 14,9 14,5 11,7 12,2 0,8
13.10.2017 09:00:00 14,2 13,9 - - 3,2
13.10.2017 08:00:00 14,3 13,9 - - 3,2
13.10.2017 07:00:00 14,1 13,7 - - 2,0
13.10.2017 06:00:00 14,0 13,7 - - 2,6
13.10.2017 05:00:00 13,6 13,3 - - 1,8
13.10.2017 04:00:00 13,1 12,7 - - 0,4
13.10.2017 03:00:00 12,6 12,2 - - 2,4
13.10.2017 02:00:00 12,1 11,7 - - 1,0
13.10.2017 01:00:00 11,6 11,1 - - 1,8
13.10.2017 00:00:00 11,4 10,8 - - 1,4
12.10.2017 23:00:00 11,0 10,5 - - 1,0
12.10.2017 22:00:00 10,8 9,6 - - 0,2
12.10.2017 21:00:00 10,9 8,1 - - 0,0
12.10.2017 20:00:00 10,7 7,9 - - 0,0
12.10.2017 19:00:00 10,1 7,8 - - 0,0
12.10.2017 18:00:00 10,7 6,9 - - 0,0
12.10.2017 17:00:00 11,7 7,1 - - 0,0
12.10.2017 16:00:00 12,1 7,5 - - 0,0
12.10.2017 15:00:00 11,8 7,3 - - 0,0
12.10.2017 14:00:00 11,4 7,0 - - 0,0
12.10.2017 13:00:00 12,0 7,9 - - 0,0
12.10.2017 12:00:00 10,4 7,6 - - 0,0
12.10.2017 11:00:00 9,9 7,1 - - 0,0
12.10.2017 10:00:00 8,9 7,1 11,7 12,0 0,0
12.10.2017 09:00:00 7,9 6,4 - - 0,0
12.10.2017 08:00:00 7,5 6,1 - - 0,0
12.10.2017 07:00:00 7,3 5,9 - - 0,0
12.10.2017 06:00:00 7,2 5,7 - - 0,2
12.10.2017 05:00:00 7,0 5,6 - - 0,0
12.10.2017 04:00:00 7,2 5,6 - - 0,0
12.10.2017 03:00:00 7,4 5,9 - - 0,0
12.10.2017 02:00:00 7,5 6,3 - - 0,0
12.10.2017 01:00:00 7,1 5,9 - - 0,0
12.10.2017 00:00:00 7,4 5,5 - - 0,0
11.10.2017 23:00:00 7,7 5,1 - - 0,0
11.10.2017 22:00:00 9,2 7,5 - - 0,0
11.10.2017 21:00:00 10,0 8,4 - - 0,0
11.10.2017 20:00:00 10,1 8,7 - - 0,0
11.10.2017 19:00:00 10,3 9,1 - - 0,0
11.10.2017 18:00:00 10,8 9,8 - - 0,0
11.10.2017 17:00:00 10,9 9,4 - - 0,0
11.10.2017 16:00:00 12,0 11,0 - - 0,6
11.10.2017 15:00:00 12,1 11,6 - - 3,0
11.10.2017 14:00:00 12,2 11,7 - - 2,8
11.10.2017 13:00:00 12,3 11,8 - - 2,8
11.10.2017 12:00:00 11,9 11,3 - - 1,8
11.10.2017 11:00:00 11,8 11,2 - - 2,0
11.10.2017 10:00:00 11,9 11,2 11,9 12,0 1,2

tt = Température de l'air
td = dewpoint
tt -20cm = Température de l'air -20cm
tt -100cm = Température de l'air -100cm
rr = Quantités de précipitations

stations d'obs. à proximité